* Astronomy

Members Login
Username 
 
Password 
    Remember Me  
Post Info TOPIC: Asteroid 2010 NW1


L

Posts: 131433
Date:
Asteroid 2010 NW1
Permalink  
 


Orbital elements:
2010 NW1 Earth MOID = 0.3923 AU
Epoch 2010 July 23.0 TT = JDT 2455400.5 MPC
M 20.10713 (2000.0) P Q
n 0.17022131 Peri. 131.73348 +0.08713936 +0.89636500
a 3.2244831 Node 136.62860 -0.99260767 +0.04112309
e 0.6046158 Incl. 39.26873 +0.08447922 -0.44140534
P 5.79 H 17.5 G 0.15 U 8

MPEC 2010 - N55


__________________
Page 1 of 1  sorted by
 
Quick Reply

Please log in to post quick replies.



Create your own FREE Forum
Report Abuse
Powered by ActiveBoard